Location: Morlupo
(42.1333°N, 12.5000°E)
Time: 15:34:13
(UTC+00:00)

Cosmos 1048 Rocket - Pass Details

Date: 18 September 2020
Orbit: 742 x 792 km, 74.0° (Epoch: 26 October)

Event Time Altitude Azimuth Distance (km) Brightness Sun altitude
Rises 19:25:44 0° 339° (NNW) 3,260 8.0 -24.4°
Reaches altitude 10° 19:28:07 10° 338° (NNW) 2,336 7.1 -24.8°
Maximum altitude 19:33:26 80° 253° (WSW) 801 4.0 -25.7°
Enters shadow 19:34:12 65° 184° (S) 862 4.0 -25.8°
